YV3077 SVCS-SVBC

Flight info

Callsign YV3077
Flight time 1h 3m
Altitude 11000
Route PAUJI4 PAUJI DCT CBC DCT ISULA DCT BNA
Aircraft PA31/L-SDC/C

Departure

Time 2026-04-16 00:13
Airport Caracas Óscar Machado Zuloaga International Airport (SVCS)

Arrival

Time 2026-04-16 01:16
Airport General José Antonio Anzoategui International Airport (SVBC)
Time Latitude Longitude Altitude Speed Heading
2026-04-15 22:56 10.28847 -66.82070 2076 ft 0 kts 183°
2026-04-16 00:08 10.28842 -66.82070 2076 ft 2 kts 183°
2026-04-16 00:08 10.28830 -66.82104 2074 ft 7 kts 285°
2026-04-16 00:09 10.28797 -66.82127 2072 ft 11 kts 190°
2026-04-16 00:09 10.28789 -66.82236 2067 ft 15 kts 273°
2026-04-16 00:09 10.28796 -66.82345 2062 ft 14 kts 273°
2026-04-16 00:09 10.28802 -66.82433 2058 ft 5 kts 275°
2026-04-16 00:10 10.28805 -66.82474 2056 ft 6 kts 274°
2026-04-16 00:10 10.28799 -66.82509 2055 ft 0 kts 198°
2026-04-16 00:11 10.28764 -66.82513 2054 ft 8 kts 176°
2026-04-16 00:11 10.28751 -66.82497 2054 ft 1 kts 94°
2026-04-16 00:11 10.28733 -66.82259 2064 ft 67 kts 93°
2026-04-16 00:12 10.28693 -66.81650 2104 ft 98 kts 93°
2026-04-16 00:12 10.28647 -66.80943 2308 ft 103 kts 90°
2026-04-16 00:12 10.28578 -66.80144 2445 ft 120 kts 94°
2026-04-16 00:12 10.28498 -66.79290 2582 ft 123 kts 93°
2026-04-16 00:13 10.28419 -66.78423 2747 ft 122 kts 93°
2026-04-16 00:13 10.28336 -66.77568 2916 ft 122 kts 93°
2026-04-16 00:13 10.28256 -66.76703 3108 ft 123 kts 93°
2026-04-16 00:13 10.28173 -66.75841 3301 ft 123 kts 94°
2026-04-16 00:14 10.28091 -66.74983 3486 ft 123 kts 94°
2026-04-16 00:14 10.28262 -66.74159 3673 ft 123 kts 54°
2026-04-16 00:14 10.28791 -66.73480 3854 ft 123 kts 54°
2026-04-16 00:14 10.29258 -66.72748 4042 ft 124 kts 59°
2026-04-16 00:15 10.29686 -66.71980 4226 ft 124 kts 62°
2026-04-16 00:15 10.30084 -66.71211 4415 ft 124 kts 62°
2026-04-16 00:15 10.30480 -66.70434 4594 ft 124 kts 63°
2026-04-16 00:15 10.30873 -66.69640 4767 ft 124 kts 63°
2026-04-16 00:16 10.31258 -66.68848 4940 ft 125 kts 63°
2026-04-16 00:16 10.31644 -66.68057 5136 ft 126 kts 63°
2026-04-16 00:16 10.32033 -66.67261 5323 ft 125 kts 63°
2026-04-16 00:16 10.32416 -66.66468 5504 ft 125 kts 63°
2026-04-16 00:17 10.32801 -66.65675 5683 ft 125 kts 63°
2026-04-16 00:17 10.33187 -66.64874 5861 ft 126 kts 64°
2026-04-16 00:17 10.33577 -66.64071 6042 ft 127 kts 63°
2026-04-16 00:17 10.33961 -66.63277 6227 ft 127 kts 64°
2026-04-16 00:18 10.34354 -66.62476 6412 ft 126 kts 64°
2026-04-16 00:18 10.34741 -66.61670 6599 ft 127 kts 64°
2026-04-16 00:18 10.35132 -66.60865 6782 ft 127 kts 64°
2026-04-16 00:18 10.35524 -66.60050 6964 ft 128 kts 64°
2026-04-16 00:19 10.35917 -66.59240 7147 ft 129 kts 64°
2026-04-16 00:19 10.36316 -66.58409 7337 ft 130 kts 64°
2026-04-16 00:19 10.36720 -66.57583 7523 ft 131 kts 64°
2026-04-16 00:19 10.37121 -66.56755 7717 ft 132 kts 64°
2026-04-16 00:20 10.37530 -66.55907 7922 ft 133 kts 64°
2026-04-16 00:20 10.37939 -66.55061 8131 ft 134 kts 64°
2026-04-16 00:20 10.38355 -66.54203 8337 ft 135 kts 65°
2026-04-16 00:20 10.38768 -66.53347 8544 ft 136 kts 65°
2026-04-16 00:21 10.39192 -66.52475 8755 ft 136 kts 65°
2026-04-16 00:21 10.39612 -66.51608 8963 ft 137 kts 65°
2026-04-16 00:21 10.40027 -66.50743 9167 ft 138 kts 65°
2026-04-16 00:21 10.40459 -66.49855 9375 ft 139 kts 65°
2026-04-16 00:22 10.40883 -66.48977 9578 ft 139 kts 65°
2026-04-16 00:22 10.41312 -66.48085 9776 ft 140 kts 65°
2026-04-16 00:22 10.41743 -66.47195 9975 ft 141 kts 65°
2026-04-16 00:22 10.42166 -66.46296 10170 ft 142 kts 69°
2026-04-16 00:23 10.42519 -66.45356 10375 ft 143 kts 70°
2026-04-16 00:23 10.42865 -66.44416 10575 ft 143 kts 71°
2026-04-16 00:23 10.43215 -66.43465 10767 ft 145 kts 70°
2026-04-16 00:23 10.43558 -66.42532 10961 ft 145 kts 71°
2026-04-16 00:24 10.43918 -66.41549 11056 ft 155 kts 70°
2026-04-16 00:24 10.44318 -66.40472 11041 ft 169 kts 70°
2026-04-16 00:24 10.44741 -66.39329 11032 ft 178 kts 70°
2026-04-16 00:24 10.45162 -66.38127 11028 ft 184 kts 74°
2026-04-16 00:25 10.45570 -66.36875 11020 ft 189 kts 71°
2026-04-16 00:25 10.45988 -66.35700 11016 ft 186 kts 70°
2026-04-16 00:25 10.46438 -66.34476 11003 ft 183 kts 70°
2026-04-16 00:25 10.46887 -66.33264 11008 ft 182 kts 70°
2026-04-16 00:26 10.47327 -66.32070 10996 ft 181 kts 70°
2026-04-16 00:26 10.47764 -66.30909 10988 ft 180 kts 70°
2026-04-16 00:26 10.48079 -66.29690 10983 ft 178 kts 78°
2026-04-16 00:26 10.48341 -66.28464 10982 ft 178 kts 79°
2026-04-16 00:27 10.48608 -66.27222 10970 ft 178 kts 79°
2026-04-16 00:27 10.48867 -66.26000 10963 ft 178 kts 78°
2026-04-16 00:27 10.49128 -66.24778 10960 ft 177 kts 78°
2026-04-16 00:27 10.49388 -66.23554 10965 ft 177 kts 79°
2026-04-16 00:28 10.49652 -66.22315 10958 ft 178 kts 79°
2026-04-16 00:28 10.49911 -66.21101 10955 ft 177 kts 78°
2026-04-16 00:28 10.50171 -66.19869 10961 ft 177 kts 79°
2026-04-16 00:28 10.50429 -66.18655 10963 ft 177 kts 78°
2026-04-16 00:29 10.50690 -66.17423 10963 ft 178 kts 79°
2026-04-16 00:29 10.50956 -66.16182 10957 ft 179 kts 78°
2026-04-16 00:29 10.51215 -66.14959 10953 ft 179 kts 79°
2026-04-16 00:29 10.51478 -66.13726 10951 ft 178 kts 78°
2026-04-16 00:30 10.51738 -66.12496 10961 ft 178 kts 79°
2026-04-16 00:30 10.52004 -66.11251 10948 ft 179 kts 79°
2026-04-16 00:30 10.52264 -66.10024 10943 ft 178 kts 79°
2026-04-16 00:30 10.52524 -66.08787 10937 ft 177 kts 78°
2026-04-16 00:31 10.52779 -66.07571 10946 ft 177 kts 81°
2026-04-16 00:31 10.52700 -66.06341 10942 ft 174 kts 102°
2026-04-16 00:31 10.52470 -66.05141 10945 ft 174 kts 104°
2026-04-16 00:31 10.52214 -66.03934 10947 ft 175 kts 103°
2026-04-16 00:32 10.51928 -66.02720 10944 ft 175 kts 105°
2026-04-16 00:32 10.51632 -66.01518 10948 ft 176 kts 105°
2026-04-16 00:32 10.51330 -66.00311 10947 ft 176 kts 106°
2026-04-16 00:32 10.51034 -65.99132 11021 ft 172 kts 106°
2026-04-16 00:33 10.50739 -65.97956 11019 ft 172 kts 105°
2026-04-16 00:33 10.50435 -65.96764 11025 ft 173 kts 106°
2026-04-16 00:33 10.50140 -65.95591 11034 ft 173 kts 105°
2026-04-16 00:33 10.49837 -65.94401 11036 ft 174 kts 105°
2026-04-16 00:34 10.49534 -65.93203 11038 ft 175 kts 105°
2026-04-16 00:34 10.49230 -65.92002 11037 ft 176 kts 105°
2026-04-16 00:34 10.48929 -65.90807 11030 ft 176 kts 106°
2026-04-16 00:34 10.48621 -65.89593 11030 ft 176 kts 106°
2026-04-16 00:35 10.48317 -65.88390 11027 ft 175 kts 106°
2026-04-16 00:35 10.48015 -65.87195 11036 ft 176 kts 106°
2026-04-16 00:35 10.47707 -65.85993 11030 ft 176 kts 106°
2026-04-16 00:35 10.47406 -65.84815 11030 ft 176 kts 105°
2026-04-16 00:36 10.47102 -65.83615 11030 ft 176 kts 105°
2026-04-16 00:36 10.46797 -65.82414 11036 ft 176 kts 105°
2026-04-16 00:36 10.46495 -65.81211 11030 ft 176 kts 105°
2026-04-16 00:36 10.46190 -65.80009 11037 ft 176 kts 105°
2026-04-16 00:37 10.45883 -65.78799 11041 ft 177 kts 106°
2026-04-16 00:37 10.45573 -65.77587 11028 ft 176 kts 106°
2026-04-16 00:37 10.45270 -65.76393 11032 ft 176 kts 106°
2026-04-16 00:37 10.44962 -65.75178 11034 ft 176 kts 106°
2026-04-16 00:38 10.44655 -65.73967 11029 ft 176 kts 106°
2026-04-16 00:38 10.44350 -65.72769 11034 ft 176 kts 105°
2026-04-16 00:38 10.44048 -65.71584 11028 ft 176 kts 105°
2026-04-16 00:38 10.43741 -65.70379 11026 ft 176 kts 106°
2026-04-16 00:39 10.43436 -65.69177 11035 ft 175 kts 106°
2026-04-16 00:39 10.43134 -65.67987 11035 ft 176 kts 106°
2026-04-16 00:39 10.42824 -65.66768 11029 ft 176 kts 106°
2026-04-16 00:39 10.42515 -65.65560 11030 ft 175 kts 106°
2026-04-16 00:40 10.42211 -65.64358 11029 ft 175 kts 105°
2026-04-16 00:40 10.41906 -65.63168 11025 ft 175 kts 105°
2026-04-16 00:40 10.41602 -65.61970 11028 ft 175 kts 105°
2026-04-16 00:40 10.41295 -65.60761 11034 ft 175 kts 105°
2026-04-16 00:41 10.40992 -65.59575 11037 ft 176 kts 106°
2026-04-16 00:41 10.40686 -65.58370 11038 ft 176 kts 105°
2026-04-16 00:41 10.40377 -65.57147 11035 ft 176 kts 105°
2026-04-16 00:41 10.40072 -65.55956 11030 ft 176 kts 106°
2026-04-16 00:42 10.39766 -65.54751 11029 ft 176 kts 106°
2026-04-16 00:42 10.39454 -65.53538 11035 ft 176 kts 105°
2026-04-16 00:42 10.39149 -65.52341 11041 ft 176 kts 105°
2026-04-16 00:42 10.38842 -65.51137 11036 ft 177 kts 105°
2026-04-16 00:43 10.38531 -65.49921 11035 ft 177 kts 105°
2026-04-16 00:43 10.38224 -65.48711 11035 ft 177 kts 106°
2026-04-16 00:43 10.37918 -65.47499 11034 ft 177 kts 106°
2026-04-16 00:43 10.37610 -65.46294 11035 ft 177 kts 106°
2026-04-16 00:44 10.37302 -65.45095 11019 ft 176 kts 105°
2026-04-16 00:44 10.36995 -65.43900 11018 ft 175 kts 105°
2026-04-16 00:44 10.36688 -65.42697 11023 ft 174 kts 105°
2026-04-16 00:44 10.36386 -65.41506 11038 ft 174 kts 105°
2026-04-16 00:45 10.36083 -65.40319 11038 ft 175 kts 106°
2026-04-16 00:45 10.35776 -65.39104 11032 ft 176 kts 105°
2026-04-16 00:45 10.35465 -65.37906 11026 ft 176 kts 105°
2026-04-16 00:45 10.35159 -65.36704 11023 ft 175 kts 105°
2026-04-16 00:46 10.34854 -65.35508 11034 ft 175 kts 106°
2026-04-16 00:46 10.34551 -65.34314 11034 ft 175 kts 106°
2026-04-16 00:46 10.34243 -65.33105 11036 ft 176 kts 105°
2026-04-16 00:46 10.33933 -65.31893 11036 ft 176 kts 105°
2026-04-16 00:47 10.33628 -65.30688 11026 ft 176 kts 106°
2026-04-16 00:47 10.33321 -65.29481 11033 ft 176 kts 106°
2026-04-16 00:47 10.33014 -65.28278 11035 ft 176 kts 106°
2026-04-16 00:47 10.32705 -65.27071 11024 ft 176 kts 105°
2026-04-16 00:48 10.32397 -65.25877 11033 ft 176 kts 105°
2026-04-16 00:48 10.32088 -65.24670 11034 ft 176 kts 105°
2026-04-16 00:48 10.31784 -65.23472 11035 ft 176 kts 105°
2026-04-16 00:48 10.31473 -65.22265 11028 ft 176 kts 106°
2026-04-16 00:49 10.31167 -65.21058 11020 ft 176 kts 106°
2026-04-16 00:50 10.29009 -65.12656 11030 ft 175 kts 105°
2026-04-16 00:51 10.28703 -65.11464 11029 ft 175 kts 105°
2026-04-16 00:51 10.28394 -65.10259 11033 ft 176 kts 105°
2026-04-16 00:51 10.28087 -65.09058 11036 ft 176 kts 105°
2026-04-16 00:51 10.27776 -65.07849 11041 ft 177 kts 105°
2026-04-16 00:52 10.27467 -65.06641 11019 ft 176 kts 105°
2026-04-16 00:52 10.27158 -65.05433 11021 ft 175 kts 105°
2026-04-16 00:52 10.26848 -65.04239 11029 ft 175 kts 105°
2026-04-16 00:52 10.26543 -65.03038 11036 ft 175 kts 105°
2026-04-16 00:53 10.26235 -65.01841 11040 ft 176 kts 105°
2026-04-16 00:53 10.25923 -65.00628 11036 ft 177 kts 105°
2026-04-16 00:53 10.25614 -64.99422 11030 ft 177 kts 105°
2026-04-16 00:53 10.25302 -64.98207 11030 ft 176 kts 105°
2026-04-16 00:54 10.24995 -64.97012 11027 ft 176 kts 105°
2026-04-16 00:54 10.24686 -64.95804 11028 ft 176 kts 105°
2026-04-16 00:54 10.24376 -64.94604 11035 ft 176 kts 105°
2026-04-16 00:54 10.24067 -64.93396 11037 ft 176 kts 105°
2026-04-16 00:55 10.23760 -64.92198 11036 ft 177 kts 105°
2026-04-16 00:55 10.23449 -64.90988 11037 ft 176 kts 105°
2026-04-16 00:55 10.23135 -64.89774 11037 ft 176 kts 105°
2026-04-16 00:55 10.22825 -64.88570 11038 ft 177 kts 105°
2026-04-16 00:56 10.22519 -64.87370 11033 ft 177 kts 105°
2026-04-16 00:56 10.22208 -64.86160 11026 ft 176 kts 105°
2026-04-16 00:56 10.21897 -64.84955 11036 ft 175 kts 105°
2026-04-16 00:56 10.21590 -64.83765 11042 ft 175 kts 105°
2026-04-16 00:57 10.20974 -64.81366 11047 ft 176 kts 106°
2026-04-16 00:57 10.20665 -64.80162 11043 ft 176 kts 105°
2026-04-16 00:57 10.20353 -64.78959 11033 ft 176 kts 105°
2026-04-16 00:58 10.20047 -64.77760 11032 ft 175 kts 105°
2026-04-16 00:58 10.19739 -64.76569 11038 ft 175 kts 105°
2026-04-16 00:58 10.19432 -64.75382 11041 ft 174 kts 105°
2026-04-16 00:58 10.19125 -64.74186 11050 ft 175 kts 105°
2026-04-16 00:59 10.18817 -64.72984 11048 ft 176 kts 106°
2026-04-16 00:59 10.18504 -64.71766 11048 ft 176 kts 105°
2026-04-16 00:59 10.18195 -64.70572 11034 ft 177 kts 105°
2026-04-16 00:59 10.17886 -64.69372 11038 ft 175 kts 105°
2026-04-16 01:00 10.17574 -64.68168 11032 ft 174 kts 105°
2026-04-16 01:00 10.17272 -64.67000 11044 ft 173 kts 105°
2026-04-16 01:00 10.16964 -64.65807 11049 ft 173 kts 105°
2026-04-16 01:00 10.16663 -64.64626 11059 ft 173 kts 105°
2026-04-16 01:01 10.16354 -64.63441 11057 ft 174 kts 105°
2026-04-16 01:01 10.16217 -64.62232 11064 ft 176 kts 77°
2026-04-16 01:01 10.16901 -64.61232 10940 ft 180 kts 33°
2026-04-16 01:01 10.18111 -64.60972 10726 ft 182 kts 349°
2026-04-16 01:02 10.19191 -64.61613 10491 ft 182 kts 307°
2026-04-16 01:02 10.19631 -64.62776 10274 ft 181 kts 269°
2026-04-16 01:02 10.19272 -64.63981 10052 ft 180 kts 249°
2026-04-16 01:02 10.19329 -64.65236 9794 ft 184 kts 295°
2026-04-16 01:03 10.19834 -64.66425 9596 ft 185 kts 287°
2026-04-16 01:03 10.20232 -64.67676 9388 ft 186 kts 287°
2026-04-16 01:03 10.20635 -64.68922 9196 ft 186 kts 288°
2026-04-16 01:03 10.21038 -64.70169 8972 ft 185 kts 288°
2026-04-16 01:04 10.21448 -64.71411 8748 ft 183 kts 288°
2026-04-16 01:04 10.21857 -64.72619 8519 ft 182 kts 292°
2026-04-16 01:04 10.22371 -64.73798 8289 ft 181 kts 294°
2026-04-16 01:04 10.22881 -64.74963 8071 ft 181 kts 294°
2026-04-16 01:05 10.23380 -64.76092 7862 ft 180 kts 294°
2026-04-16 01:05 10.23892 -64.77254 7645 ft 180 kts 294°
2026-04-16 01:05 10.24407 -64.78419 7413 ft 180 kts 294°
2026-04-16 01:05 10.24910 -64.79562 7199 ft 180 kts 294°
2026-04-16 01:06 10.25429 -64.80739 6991 ft 180 kts 294°
2026-04-16 01:06 10.25934 -64.81885 6779 ft 180 kts 293°
2026-04-16 01:06 10.26447 -64.83046 6558 ft 179 kts 294°
2026-04-16 01:06 10.26958 -64.84203 6347 ft 179 kts 294°
2026-04-16 01:07 10.27471 -64.85362 6144 ft 179 kts 294°
2026-04-16 01:07 10.27981 -64.86511 5926 ft 179 kts 294°
2026-04-16 01:07 10.28490 -64.87667 5715 ft 178 kts 294°
2026-04-16 01:07 10.28989 -64.88804 5509 ft 177 kts 294°
2026-04-16 01:08 10.29532 -64.89887 5291 ft 174 kts 311°
2026-04-16 01:08 10.30549 -64.90436 5062 ft 167 kts 358°
2026-04-16 01:08 10.31616 -64.90115 4825 ft 159 kts 42°
2026-04-16 01:08 10.32109 -64.89180 4605 ft 154 kts 85°
2026-04-16 01:09 10.31773 -64.88157 4375 ft 155 kts 126°
2026-04-16 01:09 10.31066 -64.87332 4168 ft 154 kts 127°
2026-04-16 01:09 10.30340 -64.86531 3970 ft 154 kts 132°
2026-04-16 01:09 10.29507 -64.85819 3762 ft 154 kts 136°
2026-04-16 01:10 10.28686 -64.85129 3562 ft 153 kts 136°
2026-04-16 01:10 10.27870 -64.84432 3353 ft 153 kts 136°
2026-04-16 01:10 10.27059 -64.83743 3134 ft 153 kts 135°
2026-04-16 01:10 10.26258 -64.83017 2934 ft 153 kts 133°
2026-04-16 01:11 10.25472 -64.82305 2727 ft 148 kts 134°
2026-04-16 01:11 10.24711 -64.81622 2514 ft 146 kts 134°
2026-04-16 01:11 10.23966 -64.80929 2307 ft 146 kts 131°
2026-04-16 01:11 10.23215 -64.80219 2098 ft 146 kts 132°
2026-04-16 01:12 10.22477 -64.79524 1882 ft 146 kts 131°
2026-04-16 01:12 10.21721 -64.78816 1663 ft 146 kts 131°
2026-04-16 01:12 10.20969 -64.78114 1444 ft 146 kts 132°
2026-04-16 01:12 10.20221 -64.77412 1258 ft 142 kts 131°
2026-04-16 01:13 10.19540 -64.76787 1297 ft 122 kts 132°
2026-04-16 01:13 10.18967 -64.76277 1239 ft 105 kts 132°
2026-04-16 01:13 10.18400 -64.75768 1190 ft 109 kts 131°
2026-04-16 01:13 10.17815 -64.75240 1108 ft 116 kts 129°
2026-04-16 01:14 10.17232 -64.74676 1112 ft 112 kts 131°
2026-04-16 01:14 10.16656 -64.74129 1089 ft 113 kts 129°
2026-04-16 01:14 10.16104 -64.73562 975 ft 114 kts 127°
2026-04-16 01:14 10.15540 -64.72971 807 ft 116 kts 126°
2026-04-16 01:15 10.15010 -64.72406 703 ft 108 kts 128°
2026-04-16 01:15 10.14466 -64.71899 560 ft 102 kts 133°
2026-04-16 01:15 10.13927 -64.71442 457 ft 103 kts 135°
2026-04-16 01:15 10.13355 -64.70969 315 ft 107 kts 136°
2026-04-16 01:16 10.12757 -64.70517 197 ft 107 kts 137°
2026-04-16 01:16 10.12170 -64.70043 89 ft 108 kts 135°
2026-04-16 01:16 10.11648 -64.69624 41 ft 77 kts 141°
2026-04-16 01:16 10.11325 -64.69381 41 ft 35 kts 140°
2026-04-16 01:17 10.11135 -64.69233 41 ft 33 kts 135°
2026-04-16 01:17 10.10987 -64.69109 41 ft 26 kts 138°
2026-04-16 01:17 10.10830 -64.68990 42 ft 28 kts 142°
2026-04-16 01:17 10.10741 -64.68881 42 ft 13 kts 89°
2026-04-16 01:18 10.10757 -64.68797 42 ft 5 kts 78°
2026-04-16 01:18 10.10760 -64.68782 42 ft 0 kts 79°
2026-04-16 01:18 10.10761 -64.68778 42 ft 3 kts 79°
2026-04-16 01:18 10.10764 -64.68727 42 ft 9 kts 124°
2026-04-16 01:19 10.10748 -64.68688 42 ft 6 kts 71°
2026-04-16 01:19 10.10767 -64.68671 42 ft 2 kts 346°
2026-04-16 01:19 10.10768 -64.68671 42 ft 0 kts 348°